Location: Cedar Brake
(32.2526°N, 97.8459°W)
Time: 16:53:35
(UTC+00:00)

USA 267 - Pass Details

Date: 22 April 2026
Orbit: 1101 x 1107 km, 123.0° (Epoch: 10 January)

Event Time Altitude Azimuth Distance (km) Brightness Sun altitude
Rises 08:35:25 0° 38° (NE) 3,929 7.2 -36.3°
Reaches altitude 10° 08:37:55 10° 35° (NE) 2,968 6.3 -36.0°
Enters shadow 08:43:24 57° 355° (N) 1,287 3.6 -35.2°
